Location: Elbart
(49.6135°N, 11.9134°E)
Time: 16:09:10
(UTC+00:00)

Cosmos 2173 Rocket - Pass Details

Date: 09 April 2020
Orbit: 946 x 1000 km, 83.0° (Epoch: 29 May)

Event Time Altitude Azimuth Distance (km) Brightness Sun altitude
Rises 22:18:15 0° 351° (N) 3,628 8.1 -31.1°
Reaches altitude 10° 22:20:45 10° 353° (N) 2,681 7.2 -31.2°
Enters shadow 22:26:14 67° 32° (NNE) 1,027 4.1 -31.4°
